Flag for Burundi Weather past 2 weeks in Bujumbura, Burundi

Now
82 °F

Scattered clouds.


Feels Like: 83 °F
Forecast: 66 / 88 °F
Wind: 12 mph from Southwest

Location: Kigoma Airport

Current Time: May 22, 2015 at 5:28:16 PM

Latest Report: May 22, 2015 at 4:00 PM


Visibility: N/A

Pressure: 30.09 "Hg

Humidity: 48%

Dew point: 61 °F

Location of BujumburaLocation

Historic Weather in Bujumbura — Graph

°F

Bujumbura temperature yesterday

Maximum temperature yesterday: 86 °F (at 12:00 PM)
Minimum temperature yesterday: 64 °F (at 5:00 AM)
Average temperature yesterday: 76 °F

Past Weeks' High & Low Weather Summary

 TemperatureHumidityPressure
High86 °F (May 9, 1:00 PM)100% (May 21, 7:00 AM)30.21 "Hg (May 21, 7:00 AM)
Low64 °F (May 21, 5:00 AM)30% (May 21, 5:00 PM)30.01 "Hg (May 14, 3:00 PM)
Average78 °F71%30.11 "Hg
* Reported May 7 6:00 PM — May 22 4:00 PM, Bujumbura, Weather by CustomWeather, © 2015

Note: Actual official high and low records may vary slightly from our data, if they occured in-between our weather recording intervals... More about our weather records

Advertising

Bujumbura weather history for previous 24 hours

 ConditionsComfort  
Time TempWeatherWind HumidityBarometerVisibility
4:00 PM
Fri, May 22
82 °FScattered clouds.12 mph48%30.09 "HgN/A
3:00 PM82 °FPartly sunny.12 mph45%30.09 "HgN/A
2:00 PM82 °FPartly sunny.14 mph45%30.12 "HgN/A
1:00 PM82 °FPartly sunny.18 mph45%30.15 "HgN/A
12:00 PM84 °FPartly sunny.17 mph37%30.18 "HgN/A
11:00 AM82 °FPartly sunny.17 mph40%30.21 "HgN/A
10:00 AM82 °FPartly sunny.21 mph40%30.21 "HgN/A
9:00 AM79 °FPartly sunny.17 mph48%30.21 "HgN/A
8:00 AM72 °FPartly sunny.15 mph73%30.21 "HgN/A
7:00 AM66 °FPartly sunny.No wind88%30.18 "HgN/A
6:00 AM64 °FPassing clouds.No wind94%30.15 "HgN/A
5:00 AM66 °FPassing clouds.No wind88%30.12 "HgN/A
11:00 PM
Thu, May 21
70 °FPassing clouds.No wind88%30.15 "HgN/A
10:00 PM72 °FPassing clouds.No wind83%30.15 "HgN/A
9:00 PM72 °FPassing clouds.No wind83%30.15 "HgN/A
8:00 PM73 °FPassing clouds.No wind83%30.12 "HgN/A
7:00 PM77 °FPassing clouds.No wind69%30.12 "HgN/A
6:00 PM77 °FPassing clouds.No wind65%30.09 "HgN/A
5:00 PM81 °FPassing clouds.12 mph30%30.09 "HgN/A
Weather by CustomWeather, © 2015

See weather overviewHow to use our weather pages